Overview Statistics Trail Chart Weather Telemetry Raw packets
 

This is the latest recevied weather packets stored in our database for station/object KI5RAB. If no packets are shown the sender has not sent any weather packets the latest 10 day(s).

<< 43 44 45 46 47 48 49 >>
Time Temp. Humidity Pressure Rain* Wind** Luminosity Snow
1788371418 35.56° C 53% 1018.7 hPa 0 mm - 702 W/m² -
1788371114 35° C 54% 1018.7 hPa 0 mm - 703 W/m² -
1788370809 35° C 53% 1018.8 hPa 0 mm - 698 W/m² -
1788370504 34.44° C 55% 1018.7 hPa 0 mm - 693 W/m² -
1788370199 34.44° C 56% 1018.9 hPa 0 mm - 686 W/m² -
1788369898 34.44° C 58% 1019 hPa 0 mm - 683 W/m² -
1788369594 34.44° C 58% 1018.9 hPa 0 mm - 677 W/m² -
1788369289 34.44° C 58% 1019 hPa 0 mm - 668 W/m² -
1788368985 34.44° C 58% 1018.9 hPa 0 mm - 656 W/m² -
1788368679 33.89° C 57% 1019.1 hPa 0 mm - 654 W/m² -
1788368376 33.33° C 60% 1019.1 hPa 0 mm - 644 W/m² -
1788368075 33.33° C 60% 1019.5 hPa 0 mm - 641 W/m² -
1788367775 32.78° C 62% 1019.6 hPa 0 mm - 638 W/m² -
1788367470 32.78° C 63% 1019.4 hPa 0 mm - 622 W/m² -
1788367169 33.89° C 62% 1019.3 hPa 0 mm - 612 W/m² -
1788366865 33.33° C 60% 1019.3 hPa 0 mm - 602 W/m² -
1788366562 32.22° C 64% 1019.5 hPa 0 mm - 601 W/m² -
1788366258 32.78° C 64% 1019.4 hPa 0 mm - 588 W/m² -
1788365957 32.78° C 63% 1019.4 hPa 0 mm - 577 W/m² -
1788365652 32.22° C 66% 1019.3 hPa 0 mm - 567 W/m² -
1788365348 32.22° C 66% 1019.4 hPa 0 mm - 556 W/m² -
1788365044 31.67° C 68% 1019.5 hPa 0 mm - 543 W/m² -
1788364741 31.67° C 69% 1019.4 hPa 0 mm - 533 W/m² -
1788364436 31.11° C 71% 1019.5 hPa 0 mm - 520 W/m² -
1788364131 31.67° C 70% 1019.4 hPa 0 mm - 499 W/m² -

* Rain latest hour (hover to see other rain measurements)
** Current wind speed in m/s (hover to see current wind gust speed)